Point Hope, AK

10:02 AM AKDT on July 24, 2017 (GMT -0800)
Point Hope

Weather History for PAPO - May, 2013

Change the Weather History Date:

Sunday, May 19, 2013

  Actual Average Record
Temperature  
Mean Temperature 24 °F -  
Max Temperature 33 °F 32 °F 50 °F (2011)
Min Temperature 14 °F 24 °F 14 °F (2000)
Degree Days  
Heating Degree Days 42    
Moisture  
Dew Point 23 °F    
Average Humidity 88    
Maximum Humidity 100    
Minimum Humidity 79    
Precipitation  
Precipitation 0.00 in - - ()
Sea Level Pressure  
Sea Level Pressure 29.98 in    
Wind  
Wind Speed 17 mph (SSE)    
Max Wind Speed 29 mph    
Max Gust Speed 34 mph    
Visibility 4 miles    
Events      
Averages and records for this station are not official NWS values.
T = Trace of Precipitation, MM = Missing Value Source: NWS Daily Summary

Daily Weather History Graph

Daily Weather History Graph

Search for Another Location

Airport or City:

Trip Planner

Search our weather history database for the weather conditions in past years. The results will help you decide how hot, cold, wet, or windy it might be!

Date:

Astronomy

May. 19, 2013 Rise Set
Actual Time 4:14 AM AKDT 1:59 AM AKDT
Civil Twilight Sun does not set Sun does not set
Nautical Twilight Sun does not set Sun does not set
Astronomical Twilight Sun does not set Sun does not set
Moon 4:41 PM AKDT (5/19) 4:30 AM AKDT (5/19)
Length of Visible Light 24h 00m
Length of Day
21h 45m
Waxing Gibbous, 66% of the Moon is Illuminated
May 19
Waxing Gibbous
May 24
Full
May 31
Last Quarter
Jun 8
New
Jun 16
First Quarter

Hourly Weather History & Observations

Time (AKDT) Temp. Windchill Dew Point Humidity Pressure Visibility Wind Dir Wind Speed Gust Speed Precip Events Conditions
12:16 AM 14.0 °F 0.5 °F 10.4 °F 86% 29.92 in 10.0 mi SE 11.5 mph - N/A   Mostly Cloudy
12:36 AM 15.8 °F 3.4 °F 10.4 °F 79% 29.92 in 10.0 mi SE 10.4 mph - N/A   Mostly Cloudy
12:56 AM 14.0 °F -0.8 °F 10.4 °F 86% 29.92 in 10.0 mi SE 13.8 mph - N/A   Mostly Cloudy
1:16 AM 15.8 °F 0.9 °F 10.4 °F 79% 29.93 in 10.0 mi SE 15.0 mph - N/A   Overcast
1:56 AM 15.8 °F -0.6 °F 12.2 °F 86% 29.92 in 4.0 mi SE 18.4 mph - N/A   Overcast
2:16 AM 15.8 °F -0.6 °F 10.4 °F 79% 29.92 in 1.2 mi SE 18.4 mph - N/A   Mostly Cloudy
2:36 AM 15.8 °F -1.1 °F 10.4 °F 79% 29.92 in 0.8 mi SE 19.6 mph - N/A   Overcast
2:56 AM 15.8 °F -1.5 °F 12.2 °F 86% 29.92 in 1.5 mi SE 20.7 mph - N/A   Overcast
3:36 AM 17.6 °F 0.9 °F 14.0 °F 86% 29.91 in 3.0 mi SE 20.7 mph - N/A   Overcast
3:56 AM 19.4 °F 2.8 °F 15.8 °F 86% 29.91 in 2.5 mi SE 21.9 mph - N/A   Overcast
4:16 AM 19.4 °F 2.8 °F 15.8 °F 86% 29.91 in 4.0 mi SE 21.9 mph - N/A   Overcast
4:36 AM 21.2 °F 5.2 °F 17.6 °F 86% 29.90 in 8.0 mi SE 21.9 mph - N/A   Overcast
4:56 AM 23.0 °F 7.6 °F 19.4 °F 86% 29.90 in 9.0 mi SE 21.9 mph - N/A   Overcast
5:16 AM 24.8 °F 9.6 °F 21.2 °F 86% 29.89 in 7.0 mi SE 23.0 mph - N/A   Overcast
5:36 AM 26.6 °F 11.4 °F 23.0 °F 86% 29.89 in 2.0 mi SSE 25.3 mph - N/A   Overcast
5:56 AM 26.6 °F 11.4 °F 24.8 °F 93% 29.88 in 3.0 mi SSE 25.3 mph - N/A   Overcast
6:16 AM 28.4 °F 13.5 °F 24.8 °F 86% 29.88 in 3.0 mi SSE 26.5 mph - N/A   Overcast
6:36 AM 28.4 °F 13.5 °F 26.6 °F 93% 29.88 in 1.8 mi SSE 26.5 mph 33.4 mph N/A   Overcast
6:56 AM 28.4 °F 13.0 °F 26.6 °F 93% 29.87 in 1.5 mi SSE 28.8 mph - N/A   Overcast
7:16 AM 28.4 °F 13.5 °F 26.6 °F 93% 29.87 in 1.8 mi SSE 26.5 mph 33.4 mph N/A   Overcast
7:36 AM 28.4 °F 13.5 °F 26.6 °F 93% 29.87 in 0.8 mi SSE 26.5 mph 34.5 mph N/A   Overcast
7:56 AM 28.4 °F 13.3 °F 26.6 °F 93% 29.87 in 1.5 mi SSE 27.6 mph 34.5 mph N/A   Overcast
8:16 AM 28.4 °F 13.5 °F 26.6 °F 93% 29.87 in 1.5 mi SSE 26.5 mph 32.2 mph N/A   Overcast
8:36 AM 28.4 °F 13.3 °F 26.6 °F 93% 29.88 in 1.5 mi SSE 27.6 mph 31.1 mph N/A   Overcast
8:56 AM 30.2 °F 16.5 °F 26.6 °F 86% 29.88 in 1.8 mi SSE 24.2 mph - N/A   Overcast
9:16 AM 30.2 °F 16.2 °F 26.6 °F 86% 29.88 in 0.8 mi SSE 25.3 mph 32.2 mph N/A   Overcast
9:36 AM 30.2 °F 15.9 °F 26.6 °F 86% 29.89 in 1.2 mi SSE 26.5 mph 32.2 mph N/A   Overcast
9:56 AM 30.2 °F 16.2 °F 26.6 °F 86% 29.89 in 1.0 mi SSE 25.3 mph 29.9 mph N/A   Overcast
10:16 AM 30.2 °F 16.5 °F 28.4 °F 93% 29.89 in 1.0 mi South 24.2 mph - N/A   Overcast
10:36 AM 30.2 °F 16.8 °F 28.4 °F 93% 29.90 in 1.2 mi South 23.0 mph - N/A   Overcast
10:56 AM 30.2 °F 17.1 °F 28.4 °F 93% 29.90 in 0.8 mi South 21.9 mph - N/A   Overcast
11:16 AM 30.2 °F 16.8 °F 28.4 °F 93% 29.90 in 1.2 mi South 23.0 mph 27.6 mph N/A   Overcast
11:36 AM 30.2 °F 17.8 °F 28.4 °F 93% 29.91 in 3.0 mi South 19.6 mph - N/A   Overcast
11:56 AM 30.2 °F 17.4 °F 28.4 °F 93% 29.91 in 3.0 mi South 20.7 mph - N/A   Overcast
12:16 PM 30.2 °F 17.4 °F 30.2 °F 100% 29.92 in 8.0 mi South 20.7 mph - N/A   Overcast
12:36 PM 32.0 °F 20.1 °F 30.2 °F 93% 29.93 in 10.0 mi South 19.6 mph 24.2 mph N/A   Overcast
12:56 PM 32.0 °F 19.2 °F 28.4 °F 87% 29.93 in 6.0 mi South 23.0 mph - N/A   Overcast
1:16 PM 32.0 °F 19.8 °F 30.2 °F 93% 29.93 in 8.0 mi South 20.7 mph 26.5 mph N/A   Overcast
1:56 PM 32.0 °F 20.5 °F 30.2 °F 93% 29.95 in 10.0 mi South 18.4 mph - N/A   Overcast
2:16 PM 33.8 °F 22.8 °F 30.2 °F 87% 29.95 in 10.0 mi South 18.4 mph 23.0 mph N/A   Overcast
2:36 PM 33.8 °F 23.5 °F 30.2 °F 87% 29.97 in 10.0 mi South 16.1 mph - N/A   Overcast
2:56 PM 33.8 °F 23.5 °F 30.2 °F 87% 29.98 in 9.0 mi South 16.1 mph - N/A   Overcast
3:16 PM 33.8 °F 23.5 °F 30.2 °F 87% 29.99 in 9.0 mi SSW 16.1 mph - N/A   Overcast
3:36 PM 33.8 °F 23.5 °F 30.2 °F 87% 30.00 in 9.0 mi SSW 16.1 mph - N/A   Overcast
3:56 PM 33.8 °F 23.2 °F 30.2 °F 87% 30.00 in 10.0 mi SSW 17.3 mph - N/A   Overcast
4:16 PM 33.8 °F 23.5 °F 30.2 °F 87% 30.01 in 10.0 mi SSW 16.1 mph - N/A   Overcast
4:36 PM 30.2 °F 21.3 °F 28.4 °F 93% 30.03 in 10.0 mi WNW 10.4 mph - N/A   Overcast
4:56 PM 28.4 °F 19.1 °F 26.6 °F 93% 30.04 in 1.0 mi WNW 10.4 mph - N/A   Overcast
5:16 PM 28.4 °F 19.1 °F 24.8 °F 86% 30.05 in 2.5 mi NW 10.4 mph - N/A   Overcast
5:36 PM 26.6 °F 18.2 °F 24.8 °F 93% 30.06 in 7.0 mi NW 8.1 mph - N/A   Overcast
5:56 PM 26.6 °F 19.1 °F 23.0 °F 86% 30.07 in 10.0 mi NW 6.9 mph - N/A   Overcast
6:16 PM 26.6 °F 19.1 °F 21.2 °F 80% 30.07 in 10.0 mi NW 6.9 mph - N/A   Overcast
6:36 PM 26.6 °F 20.0 °F 21.2 °F 80% 30.08 in 3.0 mi NNW 5.8 mph - N/A   Overcast
6:56 PM 26.6 °F 20.0 °F 23.0 °F 86% 30.09 in 0.8 mi NNW 5.8 mph - N/A   Overcast
7:16 PM 24.8 °F 16.9 °F 21.2 °F 86% 30.09 in 0.8 mi North 6.9 mph - N/A   Overcast
7:36 PM 26.6 °F 18.2 °F 23.0 °F 86% 30.09 in 0.8 mi North 8.1 mph - N/A   Overcast
7:56 PM 24.8 °F 16.9 °F 21.2 °F 86% 30.10 in 0.8 mi North 6.9 mph - N/A   Overcast
8:16 PM 24.8 °F 15.3 °F 21.2 °F 86% 30.11 in 1.0 mi North 9.2 mph - N/A   Overcast
8:36 PM 24.8 °F 16.1 °F 21.2 °F 86% 30.11 in 0.8 mi North 8.1 mph - N/A   Overcast
8:56 PM 24.8 °F 16.1 °F 23.0 °F 93% 30.12 in 0.8 mi North 8.1 mph - N/A   Overcast
9:16 PM 24.8 °F 16.1 °F 21.2 °F 86% 30.13 in 0.8 mi North 8.1 mph - N/A   Overcast
9:36 PM 24.8 °F 15.3 °F 21.2 °F 86% 30.13 in 0.8 mi North 9.2 mph - N/A   Overcast
9:56 PM 24.8 °F 16.1 °F 21.2 °F 86% 30.14 in 0.8 mi North 8.1 mph - N/A   Overcast
10:16 PM 24.8 °F 15.3 °F 21.2 °F 86% 30.15 in 1.2 mi North 9.2 mph - N/A   Overcast
10:36 PM 24.8 °F 15.3 °F 21.2 °F 86% 30.16 in 0.8 mi North 9.2 mph - N/A   Overcast
10:56 PM 24.8 °F 14.0 °F 21.2 °F 86% 30.16 in 2.0 mi NNE 11.5 mph - N/A   Overcast
11:16 PM 24.8 °F 15.3 °F 19.4 °F 80% 30.16 in 0.8 mi NNE 9.2 mph - N/A   Overcast
11:36 PM 24.8 °F 14.0 °F 21.2 °F 86% 30.17 in 1.0 mi NNE 11.5 mph - N/A   Overcast
11:56 PM 24.8 °F 14.6 °F 19.4 °F 80% 30.17 in 1.2 mi NNE 10.4 mph - N/A   Overcast